Location: Lombard
(41.8800°N, 88.0080°W)
Time: 01:54:27
(UTC-05:00)

Gurwin Techsat 1B - Pass Details

Date: 18 May 2022
Orbit: 811 x 814 km, 98.8° (Epoch: 27 June)

Event Time Altitude Azimuth Distance (km) Brightness Sun altitude
Rises 02:15:49 0° 29° (NNE) 3,344 13.2 -25.3°
Reaches altitude 10° 02:18:47 10° 45° (NE) 2,406 12.0 -25.1°
Maximum altitude 02:22:41 21° 93° (E) 1,776 10.6 -24.8°
Enters shadow 02:25:18 15° 129° (SE) 2,077 10.6 -24.6°
